Regional Weather Roundup
Issued by NWS

Home | Current Version | Previous Version | Graphics & Text | Print | Product List | Glossary On
Versions: 1 2 3 4 5 6 7 8 9 10 11 12 13 14 15 16 17 18 19 20 21 22 23 24 25 26 27 28 29 30 31 32 33 34 35 36 37 38 39 40 41 42 43 44 45 46 47 48 49 50
000
ASUS43 KOAX 011010
RWRNE

WEATHER ROUNDUP FOR NEBRASKA
NATIONAL WEATHER SERVICE OMAHA NE
500 AM CDT WED APR 01 2015

NOTES: SATELLITE DATA IS BEING USED TO AUGMENT CLOUD COVER ABOVE
       12000 FEET.
       "FAIR" INDICATES FEW OR NO CLOUDS BELOW 12,000 FEET WITH NO
       SIGNIFICANT WEATHER AND/OR OBSTRUCTIONS TO VISIBILITY.

  * THESE STATIONS DO NOT REPORT WEATHER SUCH AS RAIN...SNOW OR FOG.

NEZ001>004-019>022-054>056-011100-
NEBRASKA PANHANDLE

CITY           SKY/WX    TMP DP  RH WIND       PRES   REMARKS
SCOTTSBLUFF    PTCLDY    47  24  40 N8        29.64S
ALLIANCE       PTCLDY    55  24  30 SW7       29.62F
CHADRON        PTCLDY    51  25  36 W10       29.55F
KIMBALL        PTCLDY    45  22  41 W6        29.67F
SIDNEY         CLEAR     50  26  39 SW13      29.66F
$$

NEZ057>060-069>072-079>082-011100-
SOUTHWEST NEBRASKA

CITY           SKY/WX    TMP DP  RH WIND       PRES   REMARKS
NORTH PLATTE   CLEAR     56  32  40 S16G24    29.67F
IMPERIAL         N/A     57  39  51 S16       29.69F
LEXINGTON      CLEAR     56  34  42 S17       29.70F
MCCOOK         CLEAR     58  37  45 SW7       29.71F
OGALLALA       CLEAR     52  36  54 SW12G17   29.68S
$$

NEZ005>010-023>029-035>040-094-011100-
NORTH CENTRAL NEBRASKA

CITY           SKY/WX    TMP DP  RH WIND       PRES   REMARKS
VALENTINE      MOCLDY    60  25  26 SW18      29.57F
AINSWORTH      PTCLDY    57  31  36 S17G24    29.60F
BROKEN BOW     CLEAR     57  34  41 SW10      29.69F
O`NEILL        CLEAR     55  33  43 S14       29.66S
ORD            CLEAR     54  32  43 S9        29.69F
THEDFORD       PTCLDY    55  30  38 S12       29.66S
$$

NEZ041-046>049-061>064-073>077-083>087-011100-
SOUTH CENTRAL NEBRASKA

CITY           SKY/WX    TMP DP  RH WIND       PRES   REMARKS
GRAND ISLAND   CLEAR     51  35  54 S15       29.74F
AURORA         CLEAR     53  35  50 S15G22    29.76S
HASTINGS       CLEAR     57  38  48 S12       29.76S
HEBRON         FAIR      55  34  44 S14G20    29.79F
HOLDREGE       CLEAR     52  34  50 S9G17     29.74S
KEARNEY *      CLEAR     54  34  47 S16       29.73F
YORK           MOCLDY    50  36  57 S10       29.78S
$$

NEZ011>018-030>034-042>045-011100-
NORTHEAST NEBRASKA

CITY           SKY/WX    TMP DP  RH WIND       PRES   REMARKS
NORFOLK        CLEAR     57  34  41 S22G31    29.72F
ALBION         PTCLDY    48  32  55 SE8       29.73F
BLAIR          CLEAR     59  31  35 S17       29.79F
COLUMBUS *     CLEAR     55  30  38 S16       29.77F
FREMONT        CLEAR     57  32  38 S12G20    29.79S
TEKAMAH        CLEAR     50  31  48 S12       29.78F
WAYNE          CLEAR     50  33  51 S16       29.74F
$$

NEZ050>053-065>068-078-088>093-011100-
SOUTHEAST NEBRASKA

CITY           SKY/WX    TMP DP  RH WIND       PRES   REMARKS
LINCOLN        CLEAR     55  34  45 S15       29.80F
OMAHA EPPLEY   CLEAR     56  33  42 S20       29.81F
BEATRICE       CLEAR     55  33  44 S12       29.82S
FALLS CITY     CLEAR     55  33  43 S16       29.85F
NEBRASKA CITY  CLEAR     55  30  39 S14       29.83F
PLATTSMOUTH    CLEAR     55  30  37 SE12      29.82F
$$

NEZ044-045-051>053-067-011100-
OMAHA AREA

CITY           SKY/WX    TMP DP  RH WIND       PRES   REMARKS
OMAHA EPPLEY   CLEAR     56  33  42 S20       29.81F
BLAIR          CLEAR     59  31  35 S17       29.79F
FREMONT        CLEAR     57  32  38 S12G20    29.79S
MILLARD        CLEAR     56  34  43 SE10      29.81F
OFFUTT AFB     CLEAR     55  33  44 SE14      29.81F
PLATTSMOUTH    CLEAR     55  30  37 SE12      29.82F
WAHOO          FAIR      50  32  51 SE10      29.79F
$$


USA.gov is the U.S. government's official web portal to all federal, state and local government web resources and services.